Flag Weather past 2 weeks in Kings County, Nova Scotia, Canada

Now
39 °F

Chilly.


Feels Like: 31 °F
Forecast: 30 / 44 °F
Wind: 12 mph from East

Location: McNabs Island - AUT

Current Time: Nov 27, 2014 at 12:35:17 AM

Latest Report: Nov 27, 2014 at 12:00 AM


Visibility: N/A

Pressure: 29.83 "Hg

Humidity: 97%

Dew point: 38 °F

Location of Kings CountyLocation

Historic Weather in Kings County — Graph

°F

Kings County temperature yesterday

Maximum temperature yesterday: 50 °F (at 12:00 AM)
Minimum temperature yesterday: 38 °F (at 9:00 PM)
Average temperature yesterday: 45 °F

Past Weeks' High & Low Weather Summary

 TemperatureHumidityPressure
High60 °F (Nov 18, 4:00 AM)100% (Nov 13, 12:00 AM)30.35 "Hg (Nov 13, 12:00 AM)
Low24 °F (Nov 22, 7:00 AM)51% (Nov 19, 3:00 PM)29.31 "Hg (Nov 18, 5:00 AM)
Average42 °F82%29.94 "Hg
* Reported Nov 11 11:00 PM — Nov 26 11:00 PM, Kings County, Weather by CustomWeather, © 2014

Note: Actual official high and low records may vary slightly from our data, if they occured in-between our weather recording intervals... More about our weather records

Advertising

Kings County weather history for previous 24 hours

 ConditionsComfort  
Time TempWeatherWind HumidityBarometerVisibility
11:00 PM
Nov 26
39 °FChilly.12 mph95%29.91 "HgN/A
10:00 PM39 °FChilly.9 mph97%29.96 "HgN/A
9:00 PM38 °FChilly.10 mph97%30.01 "HgN/A
8:00 PM38 °FChilly.8 mph96%30.07 "HgN/A
7:00 PM39 °FChilly.7 mph94%30.13 "HgN/A
6:00 PM41 °FQuite cool.2 mph92%30.17 "HgN/A
5:00 PM42 °FQuite cool.5 mph89%30.14 "HgN/A
4:00 PM44 °FQuite cool.7 mph79%30.18 "HgN/A
3:00 PM45 °FCool.6 mph78%30.16 "HgN/A
2:00 PM46 °FCool.5 mph75%30.15 "HgN/A
1:00 PM48 °FCool.1 mph60%30.18 "HgN/A
12:00 PM47 °FCool.2 mph66%30.20 "HgN/A
11:00 AM47 °FCool.7 mph60%30.20 "HgN/A
10:00 AM47 °FCool.1 mph71%30.19 "HgN/A
9:00 AM46 °FCool.1 mph75%30.18 "HgN/A
8:00 AM46 °FCool.1 mph73%30.17 "HgN/A
7:00 AM46 °FCool.2 mph71%30.14 "HgN/A
6:00 AM46 °FCool.1 mph73%30.11 "HgN/A
5:00 AM47 °FCool.6 mph71%30.08 "HgN/A
4:00 AM48 °FCool.6 mph77%30.08 "HgN/A
3:00 AM48 °FCool.7 mph80%30.03 "HgN/A
2:00 AM50 °FCool.5 mph87%29.98 "HgN/A
1:00 AM49 °FCool.8 mph90%29.96 "HgN/A
12:00 AM50 °FCool.6 mph91%29.92 "HgN/A
Weather by CustomWeather, © 2014

See weather overviewHow to use our weather pages